,,,PA_Meas_PMT16A,,PR_Meas_QMR101_102,,RH_Meas_QMH101,,SR_Meas_QMS101,,TA_Meas_QMH101,,GenWind,,GenWind,
date,time,status,PA,status,PR,status,RH,status,SR,status,TA,status,DirAvg,status,SpdAvg,
2010-10-26, 00:00:04,VALID,1002.91,VALID,0,INVALID,163.594,VALID,0,VALID,24.9885,VALID,8,VALID,0.251172,
2010-10-26, 00:01:04,VALID,1002.92,VALID,0,INVALID,163.624,VALID,0,VALID,24.969,VALID,8,VALID,0.418359,
2010-10-26, 00:02:04,VALID,1002.92,VALID,0,INVALID,163.586,VALID,0,VALID,24.969,VALID,8,VALID,0.158594,
2010-10-26, 00:03:04,VALID,1002.93,VALID,0,INVALID,163.586,VALID,0.100563,VALID,24.9476,VALID,8,VALID,0.171094,
2010-10-26, 00:04:04,VALID,1002.92,VALID,0,INVALID,163.594,VALID,0,VALID,24.969,VALID,41,VALID,0.176172,
2010-10-26, 00:05:04,VALID,1002.93,VALID,0,INVALID,163.601,VALID,0,VALID,24.9476,VALID,41,VALID,0.326562,
2010-10-26, 00:06:04,VALID,1002.96,VALID,0,INVALID,163.617,VALID,0.100563,VALID,24.9282,VALID,41,VALID,0.217187,
2010-10-26, 00:07:04,VALID,1002.99,VALID,0,INVALID,163.594,VALID,0,VALID,24.9476,VALID,41,VALID,0.21875,
2010-10-26, 00:08:04,VALID,1002.98,VALID,0,INVALID,163.601,VALID,0,VALID,24.9866,VALID,64,VALID,0.275391,
2010-10-26, 00:09:04,VALID,1003.01,VALID,0,INVALID,163.624,VALID,0,VALID,24.9866,VALID,64,VALID,0,
2010-10-26, 00:10:04,VALID,1003.04,VALID,0,INVALID,163.609,VALID,0,VALID,24.9671,VALID,63,VALID,0,
2010-10-26, 00:11:04,VALID,1003.03,VALID,0,INVALID,163.601,VALID,0,VALID,24.9671,VALID,63,VALID,0,
2010-10-26, 00:12:04,VALID,1003,VALID,0,INVALID,163.609,VALID,0,VALID,24.9671,VALID,63,VALID,0,
2010-10-26, 00:13:04,VALID,1003,VALID,0,INVALID,163.601,VALID,0,VALID,24.9866,VALID,63,VALID,0,
2010-10-26, 00:14:04,VALID,1003,VALID,0,INVALID,163.609,VALID,0,VALID,24.9476,VALID,63,VALID,0,
2010-10-26, 00:15:04,VALID,1003,VALID,0,INVALID,163.601,VALID,0,VALID,24.93,VALID,51,VALID,0,
2010-10-26, 00:16:04,VALID,1003.01,VALID,0,INVALID,163.617,VALID,0,VALID,24.8503,VALID,31,VALID,0.429688,
2010-10-26, 00:17:04,VALID,1003.02,VALID,0,INVALID,163.609,VALID,0,VALID,24.8327,VALID,31,VALID,0.708984,
2010-10-26, 00:18:04,VALID,1003.07,VALID,0,INVALID,163.624,VALID,0,VALID,24.7529,VALID,32,VALID,0.375,
2010-10-26, 00:19:04,VALID,1003.07,VALID,0,INVALID,163.617,VALID,0,VALID,24.714,VALID,32,VALID,0.186719,
2010-10-26, 00:20:04,VALID,1003.06,VALID,0,INVALID,163.639,VALID,0,VALID,24.675,VALID,32,VALID,0.266406,
2010-10-26, 00:21:04,VALID,1003.09,VALID,0,INVALID,163.624,VALID,0,VALID,24.6574,VALID,32,VALID,0,
2010-10-26, 00:22:04,VALID,1003.06,VALID,0,INVALID,163.647,VALID,0,VALID,24.638,VALID,32,VALID,0,
2010-10-26, 00:23:04,VALID,1003.08,VALID,0,INVALID,163.632,VALID,0,VALID,24.5777,VALID,32,VALID,0,
2010-10-26, 00:24:04,VALID,1003.07,VALID,0,INVALID,163.67,VALID,0,VALID,24.5777,VALID,32,VALID,0,
2010-10-26, 00:25:04,VALID,1003.1,VALID,0,INVALID,163.632,VALID,0,VALID,24.5796,VALID,32,VALID,0.436328,
2010-10-26, 00:26:04,VALID,1003.14,VALID,0,INVALID,163.639,VALID,0,VALID,24.5406,VALID,31,VALID,0.553125,
2010-10-26, 00:27:04,VALID,1003.13,VALID,0,INVALID,163.632,VALID,0,VALID,24.5212,VALID,31,VALID,0.387109,
2010-10-26, 00:28:04,VALID,1003.13,VALID,0,INVALID,163.655,VALID,0,VALID,24.4628,VALID,31,VALID,0.332812,
2010-10-26, 00:29:04,VALID,1003.1,VALID,0,INVALID,163.655,VALID,0,VALID,24.422,VALID,31,VALID,0.165625,
2010-10-26, 00:30:04,VALID,1003.1,VALID,0,INVALID,163.655,VALID,0,VALID,24.4238,VALID,31,VALID,0.310156,
2010-10-26, 00:31:04,VALID,1003.07,VALID,0,INVALID,163.662,VALID,0,VALID,24.4025,VALID,31,VALID,0.362891,
2010-10-26, 00:32:04,VALID,1003.09,VALID,0,INVALID,163.647,VALID,0,VALID,24.4025,VALID,31,VALID,0.510547,
2010-10-26, 00:33:04,VALID,1003.11,VALID,0,INVALID,163.624,VALID,0,VALID,24.383,VALID,31,VALID,0.499219,
2010-10-26, 00:34:04,VALID,1003.11,VALID,0,INVALID,163.67,VALID,0,VALID,24.3441,VALID,31,VALID,0.674609,
2010-10-26, 00:35:04,VALID,1003.11,VALID,0,INVALID,163.662,VALID,0,VALID,24.2857,VALID,31,VALID,0.328516,
2010-10-26, 00:36:04,VALID,1003.12,VALID,0,INVALID,163.662,VALID,0,VALID,24.3265,VALID,26,VALID,0.485156,
2010-10-26, 00:37:04,VALID,1003.11,VALID,0,INVALID,163.67,VALID,0,VALID,24.307,VALID,26,VALID,0.491797,
2010-10-26, 00:38:04,VALID,1003.12,VALID,0,INVALID,163.655,VALID,0,VALID,24.2857,VALID,26,VALID,0.544531,
2010-10-26, 00:39:04,VALID,1003.1,VALID,0,INVALID,163.685,VALID,0,VALID,24.2875,VALID,26,VALID,0.456641,
2010-10-26, 00:40:04,VALID,1003.09,VALID,0,INVALID,163.678,VALID,0.100563,VALID,24.2468,VALID,26,VALID,0.399219,
2010-10-26, 00:41:04,VALID,1003.08,VALID,0,INVALID,163.678,VALID,0,VALID,24.2681,VALID,26,VALID,0.346484,
2010-10-26, 00:42:04,VALID,1003.09,VALID,0,INVALID,163.655,VALID,0,VALID,24.2468,VALID,26,VALID,0.0398437,
2010-10-26, 00:43:04,VALID,1003.1,VALID,0,INVALID,163.662,VALID,0,VALID,24.2273,VALID,26,VALID,0,
2010-10-26, 00:44:04,VALID,1003.12,VALID,0,INVALID,163.655,VALID,0,VALID,24.2078,VALID,26,VALID,0,
2010-10-26, 00:45:04,VALID,1003.12,VALID,0,INVALID,163.67,VALID,0,VALID,24.2291,VALID,26,VALID,0.111719,
2010-10-26, 00:46:04,VALID,1003.15,VALID,0,INVALID,163.647,VALID,0,VALID,24.2273,VALID,26,VALID,0.219531,
2010-10-26, 00:47:04,VALID,1003.15,VALID,0,INVALID,163.647,VALID,0,VALID,24.2468,VALID,26,VALID,0.0894531,
2010-10-26, 00:48:04,VALID,1003.14,VALID,0,INVALID,163.632,VALID,0,VALID,24.2468,VALID,46,VALID,0.00585938,
2010-10-26, 00:49:04,VALID,1003.15,VALID,0,INVALID,163.67,VALID,0,VALID,24.2681,VALID,46,VALID,0.209766,
2010-10-26, 00:50:04,VALID,1003.15,VALID,0,INVALID,163.655,VALID,0,VALID,24.2273,VALID,46,VALID,0.0628906,
2010-10-26, 00:51:04,VALID,1003.14,VALID,0,INVALID,163.655,VALID,0,VALID,24.2097,VALID,46,VALID,0.000390625,
2010-10-26, 00:52:04,VALID,1003.14,VALID,0,INVALID,163.662,VALID,0,VALID,24.2291,VALID,63,VALID,0.187109,
2010-10-26, 00:53:04,VALID,1003.15,VALID,0,INVALID,163.662,VALID,0,VALID,24.2273,VALID,29,VALID,0.438672,
2010-10-26, 00:54:04,VALID,1003.17,VALID,0,INVALID,163.662,VALID,0,VALID,24.3265,VALID,89,VALID,0.558594,
2010-10-26, 00:55:04,VALID,1003.17,VALID,0,INVALID,163.632,VALID,0,VALID,24.3654,VALID,85,VALID,0.661719,
2010-10-26, 00:56:04,VALID,1003.16,VALID,0,INVALID,163.647,VALID,0,VALID,24.383,VALID,78,VALID,0.291797,
2010-10-26, 00:57:04,VALID,1003.14,VALID,0,INVALID,163.647,VALID,0,VALID,24.422,VALID,78,VALID,0.280469,
2010-10-26, 00:58:04,VALID,1003.14,VALID,0,INVALID,163.639,VALID,0,VALID,24.422,VALID,78,VALID,0.0351563,
2010-10-26, 00:59:04,VALID,1003.17,VALID,0,INVALID,163.639,VALID,0.100563,VALID,24.4025,VALID,78,VALID,0.0980469,
2010-10-26, 01:00:04,VALID,1003.19,VALID,0,INVALID,163.662,VALID,0.100563,VALID,24.4025,VALID,75,VALID,0.329688,
2010-10-26, 01:01:04,VALID,1003.2,VALID,0,INVALID,163.655,VALID,0.201126,VALID,24.383,VALID,72,VALID,0.415625,
2010-10-26, 01:02:04,VALID,1003.22,VALID,0,INVALID,163.632,VALID,0.201126,VALID,24.3849,VALID,72,VALID,0.118359,
2010-10-26, 01:03:04,VALID,1003.21,VALID,0,INVALID,163.647,VALID,0.201126,VALID,24.3849,VALID,72,VALID,0.160156,
2010-10-26, 01:04:04,VALID,1003.19,VALID,0,INVALID,163.632,VALID,0.402252,VALID,24.3849,VALID,72,VALID,0.182031,
2010-10-26, 01:05:04,VALID,1003.22,VALID,0,INVALID,163.678,VALID,0.402252,VALID,24.3636,VALID,72,VALID,0.122266,
2010-10-26, 01:06:04,VALID,1003.22,VALID,0,INVALID,163.639,VALID,0.502815,VALID,24.3636,VALID,52,VALID,0.446484,
2010-10-26, 01:07:04,VALID,1003.23,VALID,0,INVALID,163.655,VALID,0.603378,VALID,24.3654,VALID,52,VALID,0.189063,
2010-10-26, 01:08:04,VALID,1003.23,VALID,0,INVALID,163.685,VALID,0.703941,VALID,24.3849,VALID,52,VALID,0.262109,
2010-10-26, 01:09:04,VALID,1003.21,VALID,0,INVALID,163.647,VALID,0.804504,VALID,24.3441,VALID,52,VALID,0.200391,
2010-10-26, 01:10:04,VALID,1003.2,VALID,0,INVALID,163.678,VALID,0.905066,VALID,24.3654,VALID,52,VALID,0.40625,
2010-10-26, 01:11:04,VALID,1003.2,VALID,0,INVALID,163.639,VALID,1.10619,VALID,24.3052,VALID,52,VALID,0.413672,
2010-10-26, 01:12:04,VALID,1003.2,VALID,0,INVALID,163.639,VALID,1.30732,VALID,24.2644,VALID,52,VALID,0.406641,
2010-10-26, 01:13:04,VALID,1003.2,VALID,0,INVALID,163.662,VALID,1.50844,VALID,24.2486,VALID,52,VALID,0.399609,
2010-10-26, 01:14:04,VALID,1003.16,VALID,0,INVALID,163.655,VALID,1.81013,VALID,24.2078,VALID,52,VALID,0.401172,
2010-10-26, 01:15:04,VALID,1003.18,VALID,0,INVALID,163.67,VALID,2.11182,VALID,24.1689,VALID,52,VALID,0.190234,
2010-10-26, 01:16:04,VALID,1003.16,VALID,0,INVALID,163.67,VALID,2.61464,VALID,24.1707,VALID,52,VALID,0.245703,
2010-10-26, 01:17:04,VALID,1003.19,VALID,0,INVALID,163.655,VALID,3.11745,VALID,24.13,VALID,52,VALID,0.160156,
2010-10-26, 01:18:04,VALID,1003.19,VALID,0,INVALID,163.685,VALID,3.92195,VALID,24.1318,VALID,52,VALID,0.233203,
2010-10-26, 01:19:04,VALID,1003.19,VALID,0,INVALID,163.662,VALID,4.6259,VALID,24.1318,VALID,52,VALID,0,
2010-10-26, 01:20:04,VALID,1003.2,VALID,0,INVALID,163.662,VALID,5.4304,VALID,24.091,VALID,52,VALID,0,
2010-10-26, 01:21:04,VALID,1003.21,VALID,0,INVALID,163.655,VALID,6.33547,VALID,24.0716,VALID,52,VALID,0.250781,
2010-10-26, 01:22:04,VALID,1003.27,VALID,0,INVALID,163.662,VALID,7.24053,VALID,24.1105,VALID,55,VALID,0.563672,
2010-10-26, 01:23:04,VALID,1003.29,VALID,0,INVALID,163.662,VALID,8.24616,VALID,24.13,VALID,59,VALID,0.329688,
2010-10-26, 01:24:04,VALID,1003.29,VALID,0,INVALID,163.647,VALID,9.35235,VALID,24.1902,VALID,59,VALID,0.143359,
2010-10-26, 01:25:04,VALID,1003.3,VALID,0,INVALID,163.639,VALID,10.358,VALID,24.2273,VALID,91,VALID,0.466016,
2010-10-26, 01:26:04,VALID,1003.3,VALID,0,INVALID,163.655,VALID,11.3636,VALID,24.2486,VALID,91,VALID,0.0175781,
2010-10-26, 01:27:04,VALID,1003.34,VALID,0,INVALID,163.655,VALID,12.3692,VALID,24.2875,VALID,91,VALID,0.155469,
2010-10-26, 01:28:04,VALID,1003.34,VALID,0,INVALID,163.632,VALID,13.4754,VALID,24.2857,VALID,91,VALID,0.312891,
2010-10-26, 01:29:04,VALID,1003.33,VALID,0,INVALID,163.647,VALID,14.5816,VALID,24.3654,VALID,91,VALID,0.171094,
2010-10-26, 01:30:04,VALID,1003.36,VALID,0,INVALID,163.67,VALID,15.4867,VALID,24.3636,VALID,90,VALID,0.182031,
2010-10-26, 01:31:04,VALID,1003.4,VALID,0,INVALID,163.655,VALID,16.4923,VALID,24.5212,VALID,88,VALID,0.478906,
2010-10-26, 01:32:04,VALID,1003.41,VALID,0,INVALID,163.624,VALID,17.2968,VALID,24.5777,VALID,88,VALID,0.638281,
2010-10-26, 01:33:04,VALID,1003.4,VALID,0,INVALID,163.632,VALID,18.1013,VALID,24.6361,VALID,77,VALID,0.290234,
2010-10-26, 01:34:04,VALID,1003.4,VALID,0,INVALID,163.639,VALID,18.9058,VALID,24.7159,VALID,78,VALID,0.346094,
2010-10-26, 01:35:04,VALID,1003.38,VALID,0,INVALID,163.609,VALID,19.107,VALID,24.7529,VALID,74,VALID,0.430469,
2010-10-26, 01:36:04,VALID,1003.38,VALID,0,INVALID,163.647,VALID,19.6098,VALID,24.7724,VALID,67,VALID,0.551953,
2010-10-26, 01:37:04,VALID,1003.4,VALID,0,INVALID,163.609,VALID,20.012,VALID,24.8308,VALID,69,VALID,0.423438,
2010-10-26, 01:38:04,VALID,1003.44,VALID,0,INVALID,163.578,VALID,20.4143,VALID,24.9282,VALID,68,VALID,0.282422,
2010-10-26, 01:39:04,VALID,1003.44,VALID,0,INVALID,163.609,VALID,21.2188,VALID,24.969,VALID,67,VALID,0.382031,
2010-10-26, 01:40:04,VALID,1003.44,VALID,0,INVALID,163.624,VALID,21.7216,VALID,25.0079,VALID,67,VALID,0.264453,
2010-10-26, 01:41:04,VALID,1003.45,VALID,0,INVALID,163.594,VALID,22.1238,VALID,25.0255,VALID,45,VALID,0.546094,
2010-10-26, 01:42:04,VALID,1003.45,VALID,0,INVALID,163.617,VALID,22.9284,VALID,25.045,VALID,29,VALID,0.177344,
2010-10-26, 01:43:04,VALID,1003.45,VALID,0,INVALID,163.594,VALID,24.3362,VALID,25.0255,VALID,29,VALID,0.0539063,
2010-10-26, 01:44:04,VALID,1003.44,VALID,0,INVALID,163.586,VALID,33.3869,VALID,25.0469,VALID,29,VALID,0.00390625,
2010-10-26, 01:45:04,VALID,1003.44,VALID,0,INVALID,163.609,VALID,26.4481,VALID,25.0663,VALID,29,VALID,0,
2010-10-26, 01:46:04,VALID,1003.46,VALID,0,INVALID,163.601,VALID,24.1351,VALID,25.1053,VALID,29,VALID,0.325781,
2010-10-26, 01:47:04,VALID,1003.46,VALID,0,INVALID,163.594,VALID,23.3306,VALID,25.1053,VALID,27,VALID,0.516016,
2010-10-26, 01:48:04,VALID,1003.47,VALID,0,INVALID,163.578,VALID,23.4312,VALID,25.0858,VALID,27,VALID,0.31875,
2010-10-26, 01:49:04,VALID,1003.54,VALID,0,INVALID,163.563,VALID,24.0345,VALID,25.0644,VALID,27,VALID,0,
2010-10-26, 01:50:04,VALID,1003.53,VALID,0,INVALID,163.601,VALID,25.9452,VALID,25.0858,VALID,27,VALID,0,
2010-10-26, 01:51:04,VALID,1003.57,VALID,0,INVALID,163.578,VALID,28.8616,VALID,25.0663,VALID,27,VALID,0,
2010-10-26, 01:52:04,VALID,1003.63,VALID,0,INVALID,163.617,VALID,32.0796,VALID,25.0431,VALID,27,VALID,0,
2010-10-26, 01:53:04,VALID,1003.62,VALID,0,INVALID,163.586,VALID,34.7948,VALID,25.082,VALID,71,VALID,0.572656,
2010-10-26, 01:54:04,VALID,1003.63,VALID,0,INVALID,163.578,VALID,36.1021,VALID,25.1618,VALID,46,VALID,0.421484,
2010-10-26, 01:55:04,VALID,1003.64,VALID,0,INVALID,163.571,VALID,36.1021,VALID,25.2202,VALID,34,VALID,0.424219,
2010-10-26, 01:56:04,VALID,1003.67,VALID,0,INVALID,163.578,VALID,35.5993,VALID,25.2786,VALID,34,VALID,0.246094,
2010-10-26, 01:57:04,VALID,1003.66,VALID,0,INVALID,163.586,VALID,37.4094,VALID,25.2981,VALID,34,VALID,0.303906,
2010-10-26, 01:58:04,VALID,1003.7,VALID,0,INVALID,163.578,VALID,42.5381,VALID,25.2962,VALID,34,VALID,0.239844,
2010-10-26, 01:59:04,VALID,1003.72,VALID,0,INVALID,163.586,VALID,48.4713,VALID,25.3351,VALID,34,VALID,0.0707031,
2010-10-26, 02:00:04,VALID,1003.74,VALID,0,INVALID,163.601,VALID,53.7006,VALID,25.376,VALID,34,VALID,0.0988281,
2010-10-26, 02:01:04,VALID,1003.78,VALID,0,INVALID,163.571,VALID,56.8181,VALID,25.3935,VALID,37,VALID,0.257031,
2010-10-26, 02:02:04,VALID,1003.79,VALID,0,INVALID,163.563,VALID,55.3096,VALID,25.4734,VALID,69,VALID,0.304688,
2010-10-26, 02:03:04,VALID,1003.8,VALID,0,INVALID,163.571,VALID,54.304,VALID,25.5123,VALID,81,VALID,0.651563,
2010-10-26, 02:04:04,VALID,1003.79,VALID,0,INVALID,163.578,VALID,50.2815,VALID,25.5902,VALID,64,VALID,0.282813,
2010-10-26, 02:05:04,VALID,1003.82,VALID,0,INVALID,163.548,VALID,52.0916,VALID,25.6486,VALID,66,VALID,0.492578,
2010-10-26, 02:06:04,VALID,1003.83,VALID,0,INVALID,163.525,VALID,80.2492,VALID,25.7246,VALID,74,VALID,0.704687,
2010-10-26, 02:07:04,VALID,1003.83,VALID,0,INVALID,163.556,VALID,76.4278,VALID,25.8239,VALID,84,VALID,0.513281,
2010-10-26, 02:08:04,VALID,1003.86,VALID,0,INVALID,163.533,VALID,64.4608,VALID,25.9408,VALID,62,VALID,0.725,
2010-10-26, 02:09:04,VALID,1003.87,VALID,0,INVALID,163.517,VALID,54.4046,VALID,26.0381,VALID,81,VALID,0.632813,
2010-10-26, 02:10:04,VALID,1003.89,VALID,0,INVALID,145.506,VALID,51.6894,VALID,26.0966,VALID,81,VALID,0.577344,
2010-10-26, 02:11:04,VALID,1003.9,VALID,0,INVALID,125.533,VALID,49.1753,VALID,26.1745,VALID,88,VALID,0.590234,
2010-10-26, 02:12:04,VALID,1003.9,VALID,0,INVALID,113.937,VALID,48.3708,VALID,26.2329,VALID,63,VALID,0.687109,
2010-10-26, 02:13:04,VALID,1003.9,VALID,0,VALID,104,VALID,51.086,VALID,26.2524,VALID,63,VALID,0.436719,
2010-10-26, 02:14:04,VALID,1003.91,VALID,0,VALID,104,VALID,53.4995,VALID,26.2913,VALID,69,VALID,0.555078,
2010-10-26, 02:15:04,VALID,1003.88,VALID,0,VALID,101.563,VALID,55.4102,VALID,26.2913,VALID,79,VALID,0.717578,
2010-10-26, 02:16:04,VALID,1003.9,VALID,0,VALID,101.594,VALID,57.8237,VALID,26.2894,VALID,82,VALID,0.383594,
2010-10-26, 02:17:04,VALID,1003.93,VALID,0,VALID,100.038,VALID,62.9524,VALID,26.3303,VALID,85,VALID,0.773047,
2010-10-26, 02:18:04,VALID,1003.94,VALID,0,VALID,100.762,VALID,129.927,VALID,26.3498,VALID,55,VALID,0.387891,
2010-10-26, 02:19:04,VALID,1003.94,VALID,0,VALID,100.472,VALID,94.7303,VALID,26.3867,VALID,61,VALID,0.427344,
2010-10-26, 02:20:04,VALID,1003.95,VALID,0,VALID,100.724,VALID,143.101,VALID,26.4472,VALID,92,VALID,0.620313,
2010-10-26, 02:21:04,VALID,1003.96,VALID,0,VALID,99.946,VALID,165.225,VALID,26.5466,VALID,80,VALID,0.597656,
2010-10-26, 02:22:04,VALID,1003.98,VALID,0,VALID,97.7641,VALID,86.283,VALID,26.642,VALID,81,VALID,0.769922,
2010-10-26, 02:23:04,VALID,1003.98,VALID,0,VALID,95.8645,VALID,155.269,VALID,26.7414,VALID,73,VALID,0.691797,
2010-10-26, 02:24:04,VALID,1003.99,VALID,0,VALID,96.6274,VALID,196.399,VALID,26.8563,VALID,70,VALID,0.448047,
2010-10-26, 02:25:04,VALID,1003.98,VALID,0,VALID,94.0031,VALID,195.595,VALID,26.9342,VALID,96,VALID,0.981641,
2010-10-26, 02:26:04,VALID,1003.99,VALID,0,VALID,93.1181,VALID,197.908,VALID,27.1095,VALID,75,VALID,0.767187,
2010-10-26, 02:27:04,VALID,1004.01,VALID,0,VALID,92.7824,VALID,136.564,VALID,27.2459,VALID,71,VALID,0.613281,
2010-10-26, 02:28:04,VALID,1004.04,VALID,0,VALID,91.8822,VALID,101.77,VALID,27.3844,VALID,71,VALID,0.390234,
2010-10-26, 02:29:04,VALID,1004.05,VALID,0,VALID,91.6763,VALID,150.945,VALID,27.4408,VALID,58,VALID,0.347266,
2010-10-26, 02:30:04,VALID,1004.05,VALID,0,VALID,90.9515,VALID,200.321,VALID,27.5382,VALID,115,VALID,0.780078,
2010-10-26, 02:31:04,VALID,1004.05,VALID,0,VALID,90.5014,VALID,210.679,VALID,27.6572,VALID,131,VALID,0.221484,
2010-10-26, 02:32:04,VALID,1004.07,VALID,0,VALID,89.8224,VALID,214.3,VALID,27.7741,VALID,156,VALID,0.217969,
2010-10-26, 02:33:04,VALID,1004.13,VALID,0,VALID,88.7468,VALID,98.7528,VALID,27.9279,VALID,108,VALID,0.388281,
2010-10-26, 02:34:04,VALID,1004.13,VALID,0,VALID,87.1676,VALID,78.5397,VALID,27.9864,VALID,83,VALID,0.477734,
2010-10-26, 02:35:04,VALID,1004.09,VALID,0,VALID,86.809,VALID,201.93,VALID,28.0254,VALID,76,VALID,0.492969,
2010-10-26, 02:36:04,VALID,1004.11,VALID,0,VALID,87.3278,VALID,215.305,VALID,28.0643,VALID,67,VALID,0.419922,
2010-10-26, 02:37:04,VALID,1004.13,VALID,0,VALID,87.8923,VALID,191.07,VALID,28.1423,VALID,66,VALID,0.491406,
2010-10-26, 02:38:04,VALID,1004.12,VALID,0,VALID,86.5115,VALID,86.3836,VALID,28.1618,VALID,90,VALID,0.294141,
2010-10-26, 02:39:04,VALID,1004.12,VALID,0,VALID,84.8408,VALID,128.721,VALID,28.1834,VALID,44,VALID,0.636328,
2010-10-26, 02:40:04,VALID,1004.14,VALID,0,VALID,84.8484,VALID,100.462,VALID,28.1855,VALID,55,VALID,0.618359,
2010-10-26, 02:41:04,VALID,1004.14,VALID,0,VALID,85.6037,VALID,211.786,VALID,28.1444,VALID,60,VALID,0.408203,
2010-10-26, 02:42:04,VALID,1004.15,VALID,0,VALID,84.8789,VALID,247.787,VALID,28.1639,VALID,78,VALID,0.614844,
2010-10-26, 02:43:04,VALID,1004.15,VALID,0,VALID,86.3208,VALID,246.48,VALID,28.2614,VALID,81,VALID,0.361328,
2010-10-26, 02:44:04,VALID,1004.18,VALID,0,VALID,84.2457,VALID,251.608,VALID,28.361,VALID,89,VALID,1.18281,
2010-10-26, 02:45:04,VALID,1004.17,VALID,0,VALID,83.0022,VALID,255.128,VALID,28.4,VALID,84,VALID,1.14492,
2010-10-26, 02:46:04,VALID,1004.14,VALID,0,VALID,82.3004,VALID,260.559,VALID,28.3415,VALID,70,VALID,1.16562,
2010-10-26, 02:47:04,VALID,1004.18,VALID,0,VALID,83.1319,VALID,264.179,VALID,28.3415,VALID,89,VALID,1.24336,
2010-10-26, 02:48:04,VALID,1004.18,VALID,0,VALID,82.6742,VALID,270.313,VALID,28.4,VALID,121,VALID,1.32109,
2010-10-26, 02:49:04,VALID,1004.17,VALID,0,VALID,84.322,VALID,270.715,VALID,28.5169,VALID,107,VALID,0.38125,
2010-10-26, 02:50:04,VALID,1004.19,VALID,0,VALID,81.3849,VALID,274.738,VALID,28.6534,VALID,20,VALID,0.847656,
2010-10-26, 02:51:04,VALID,1004.24,VALID,0,VALID,81.3239,VALID,281.375,VALID,28.7097,VALID,94,VALID,1.28945,
2010-10-26, 02:52:04,VALID,1004.25,VALID,0,VALID,81.2781,VALID,283.085,VALID,28.6122,VALID,84,VALID,1.29219,
2010-10-26, 02:53:04,VALID,1004.28,VALID,0,VALID,81.2018,VALID,287.409,VALID,28.6122,VALID,81,VALID,0.884766,
2010-10-26, 02:54:04,VALID,1004.29,VALID,0,VALID,82.6131,VALID,292.236,VALID,28.6902,VALID,77,VALID,0.535937,
2010-10-26, 02:55:04,VALID,1004.27,VALID,0,VALID,81.7587,VALID,297.566,VALID,28.7682,VALID,100,VALID,0.899219,
2010-10-26, 02:56:04,VALID,1004.29,VALID,0,VALID,79.4853,VALID,308.024,VALID,28.8461,VALID,86,VALID,1.4168,
2010-10-26, 02:57:04,VALID,1004.31,VALID,0,VALID,80.9348,VALID,314.159,VALID,28.8678,VALID,106,VALID,0.79375,
2010-10-26, 02:58:04,VALID,1004.32,VALID,0,VALID,79.7142,VALID,230.189,VALID,28.8678,VALID,71,VALID,1.03945,
2010-10-26, 02:59:04,VALID,1004.33,VALID,0,VALID,78.6995,VALID,326.226,VALID,28.8656,VALID,77,VALID,1.22891,
2010-10-26, 03:00:04,VALID,1004.37,VALID,0,VALID,80.0727,VALID,331.556,VALID,28.8656,VALID,117,VALID,0.875781,
2010-10-26, 03:01:04,VALID,1004.35,VALID,0,VALID,78.8216,VALID,339.299,VALID,28.9631,VALID,101,VALID,0.485156,
2010-10-26, 03:02:04,VALID,1004.31,VALID,0,VALID,78.5164,VALID,343.422,VALID,29.0823,VALID,97,VALID,0.957422,
2010-10-26, 03:03:04,VALID,1004.36,VALID,0,VALID,79.3404,VALID,346.037,VALID,29.1018,VALID,95,VALID,0.46875,
2010-10-26, 03:04:04,VALID,1004.38,VALID,0,VALID,78.814,VALID,348.249,VALID,29.1408,VALID,127,VALID,1.42461,
2010-10-26, 03:05:04,VALID,1004.38,VALID,0,VALID,78.0663,VALID,352.071,VALID,29.1213,VALID,138,VALID,1.36719,
2010-10-26, 03:06:04,VALID,1004.42,VALID,0,VALID,78.8369,VALID,358.809,VALID,29.0823,VALID,93,VALID,0.890625,
2010-10-26, 03:07:04,VALID,1004.42,VALID,0,VALID,79.8286,VALID,358.105,VALID,29.1603,VALID,109,VALID,0.61875,
2010-10-26, 03:08:04,VALID,1004.42,VALID,0,VALID,77.8375,VALID,364.34,VALID,29.182,VALID,131,VALID,2.25586,
2010-10-26, 03:09:04,VALID,1004.46,VALID,0,VALID,77.6544,VALID,371.58,VALID,29.0823,VALID,128,VALID,2.05117,
2010-10-26, 03:10:04,VALID,1004.45,VALID,0,VALID,79.8668,VALID,374.798,VALID,29.0043,VALID,93,VALID,0.794531,
2010-10-26, 03:11:04,VALID,1004.44,VALID,0,VALID,77.8527,VALID,375.2,VALID,28.9285,VALID,116,VALID,2.55859,
2010-10-26, 03:12:04,VALID,1004.46,VALID,0,VALID,78.9284,VALID,378.117,VALID,28.8678,VALID,128,VALID,1.46992,
2010-10-26, 03:13:04,VALID,1004.43,VALID,0,VALID,78.9437,VALID,390.285,VALID,28.8873,VALID,128,VALID,1.75508,
2010-10-26, 03:14:04,VALID,1004.46,VALID,0,VALID,81.4841,VALID,401.146,VALID,29.0065,VALID,127,VALID,1.4375,
2010-10-26, 03:15:04,VALID,1004.48,VALID,0,VALID,80.1338,VALID,408.487,VALID,29.0238,VALID,45,VALID,0.8375,
2010-10-26, 03:16:04,VALID,1004.45,VALID,0,VALID,78.4401,VALID,411.202,VALID,29.1408,VALID,121,VALID,1.72383,
2010-10-26, 03:17:04,VALID,1004.47,VALID,0,VALID,78.2113,VALID,418.04,VALID,29.1213,VALID,120,VALID,1.75625,
2010-10-26, 03:18:04,VALID,1004.49,VALID,0,VALID,78.4707,VALID,411.101,VALID,29.1408,VALID,116,VALID,1.65039,
2010-10-26, 03:19:04,VALID,1004.51,VALID,0,VALID,77.7001,VALID,424.778,VALID,29.1408,VALID,94,VALID,1.51641,
2010-10-26, 03:20:04,VALID,1004.47,VALID,0,VALID,77.5247,VALID,428.901,VALID,29.143,VALID,108,VALID,1.38359,
2010-10-26, 03:21:04,VALID,1004.5,VALID,0,VALID,78.1655,VALID,434.432,VALID,29.1625,VALID,112,VALID,2.07148,
2010-10-26, 03:22:04,VALID,1004.52,VALID,0,VALID,77.2577,VALID,434.734,VALID,29.1798,VALID,133,VALID,2.06523,
2010-10-26, 03:23:04,VALID,1004.48,VALID,0,VALID,77.7841,VALID,443.483,VALID,29.2968,VALID,8,VALID,0.9875,
2010-10-26, 03:24:04,VALID,1004.55,VALID,0,VALID,79.348,VALID,421.962,VALID,29.4528,VALID,62,VALID,1.4832,
2010-10-26, 03:25:04,VALID,1004.52,VALID,0,VALID,75.6785,VALID,461.182,VALID,29.5503,VALID,58,VALID,1.57266,
2010-10-26, 03:26:04,VALID,1004.56,VALID,0,VALID,77.9061,VALID,461.483,VALID,29.6065,VALID,64,VALID,0.724609,
2010-10-26, 03:27:04,VALID,1004.59,VALID,0,VALID,77.0212,VALID,485.116,VALID,29.7843,VALID,102,VALID,0.524219,
2010-10-26, 03:28:04,VALID,1004.65,VALID,0,VALID,74.2595,VALID,507.642,VALID,29.8015,VALID,130,VALID,2.26406,
2010-10-26, 03:29:04,VALID,1004.64,VALID,0,VALID,73.4432,VALID,438.756,VALID,29.6868,VALID,110,VALID,1.43789,
2010-10-26, 03:30:04,VALID,1004.64,VALID,0,VALID,73.5577,VALID,521.62,VALID,29.5893,VALID,104,VALID,2.21328,
2010-10-26, 03:31:04,VALID,1004.67,VALID,0,VALID,75.0071,VALID,453.74,VALID,29.4723,VALID,116,VALID,2.09531,
2010-10-26, 03:32:04,VALID,1004.66,VALID,0,VALID,75.915,VALID,512.469,VALID,29.3943,VALID,93,VALID,1.08477,
2010-10-26, 03:33:04,VALID,1004.69,VALID,0,VALID,76.0447,VALID,526.749,VALID,29.5113,VALID,121,VALID,1.54062,
2010-10-26, 03:34:04,VALID,1004.68,VALID,0,VALID,76.449,VALID,518.201,VALID,29.6455,VALID,92,VALID,0.758984,
2010-10-26, 03:35:04,VALID,1004.72,VALID,0,VALID,75.5412,VALID,156.979,VALID,29.8623,VALID,134,VALID,1.53008,
2010-10-26, 03:36:04,VALID,1004.79,VALID,0,VALID,75.1445,VALID,159.191,VALID,29.7648,VALID,59,VALID,0.979688,